{"data":{"norad_id":64038,"intl_designator":"2025-102S","name":"STARLINK-34079","alt_names":[],"object_type":"PAYLOAD","status":"ACTIVE","operator":null,"country":"US","launch_date":"2025-05-16","launch_site_code":"AFWTR","launch_vehicle":null,"mission":null,"orbit_class":"UNKNOWN","rcs_meters":null,"size_class":null,"mass_kg":null,"dimensions":null,"purposes":["comms"],"wikipedia_slug":null,"has_3d_model":false,"image_url":null,"decayed_at":null,"tle_current":{"epoch":"2026-05-25T02:44:50.538048Z","epoch_age_seconds":65212,"freshness":"FRESH","line1":"1 64038U 25102S   26145.11447382  .00004725  00000+0  40339-3 0  9998","line2":"2 64038  70.0002 281.6027 0003244 267.0569  93.0219 14.98340724 57509","mean_motion":14.98340724,"eccentricity":0.0003244,"inclination_deg":70.0002,"raan_deg":281.6027,"arg_perigee_deg":267.0569,"mean_anomaly_deg":93.0219,"bstar":0.00040339,"rev_number":5750,"period_min":96.106311263819,"perigee_km":569.76809624106,"apogee_km":574.27735987262,"semimajor_km":6950.1597280568,"source":"CELESTRAK","updated_at":"2026-05-25T13:38:20.252760Z"}}}